Regional Weather Roundup
Issued by NWS

Home | Current Version | Previous Version | Graphics & Text | Print | Product List | Glossary On
Versions: 1 2 3 4 5 6 7 8 9 10 11 12 13 14 15 16 17 18 19 20 21 22 23 24 25 26 27 28 29 30 31 32 33 34 35 36 37 38 39 40 41 42 43 44 45 46 47 48 49 50
000
ASUS45 KPSR 171400
RWRAZ

PRELIMINARY ARIZONA REGIONAL HOURLY WEATHER ROUNDUP
NATIONAL WEATHER SERVICE PHOENIX AZ
700 AM MST THU APR 17 2014

NOTE: FAIR INDICATES FEW OR NO CLOUDS BELOW 12,000 FEET WITH NO
SIGNIFICANT WEATHER AND/OR OBSTRUCTIONS TO VISIBILITY.

AZZ001>003-036-171500-
NORTHWEST ARIZONA

CITY           SKY/WX    TMP DP  RH WIND       PRES   REMARKS
KINGMAN        SUNNY     61  16  17 SE14      29.94R
$$

AZZ004>008-015-016-018-171500-
NORTH CENTRAL ARIZONA

CITY           SKY/WX    TMP DP  RH WIND       PRES   REMARKS
GRAND CANYON   SUNNY     33  18  53 NE3       30.12R
WILLIAMS       SUNNY     41  19  42 SE9       30.18R
PRESCOTT       SUNNY     47  21  35 S3        30.04R
FLAGSTAFF      SUNNY     35  21  56 CALM      30.14R
PAYSON         SUNNY     50  21  32 CALM      30.08R
PAGE           SUNNY     52  25  35 CALM      30.06R
$$

AZZ009>014-017-171500-
NORTHEAST ARIZONA

CITY           SKY/WX    TMP DP  RH WIND       PRES   REMARKS
WINSLOW        NOT AVBL
SAINT JOHNS    SUNNY     45  15  30 S3        30.10R
WINDOW ROCK    SUNNY     34  18  52 CALM      30.15R
SHOW LOW       SUNNY     43  18  36 CALM      30.14R
$$

AZZ023-171500-
GREATER PHOENIX AREA

CITY           SKY/WX    TMP DP  RH WIND       PRES   REMARKS
PHOENIX        SUNNY     67  26  21 E3        29.88R
GLENDALE       SUNNY     64  28  25 CALM      29.90R
LUKE AFB       NOT AVBL
DEER VALLEY    SUNNY     62  23  22 CALM      29.90R
SCOTTSDALE     SUNNY     65  29  25 CALM      29.92R
MESA-FALCON    SUNNY     64  23  20 N6        29.90R
MESA-GATEWAY   SUNNY     61  23  23 SE7       29.91R
CHANDLER       SUNNY     63  32  31 E10       29.90R
$$

AZZ027-028-171500-
SOUTHWEST MARICOPA COUNTY AND PINAL COUNTY

CITY           SKY/WX    TMP DP  RH WIND       PRES   REMARKS
CASA GRANDE    SUNNY     61  23  23 CALM      29.91R
GILA BEND      SUNNY     64  18  16 E3        29.88
$$

AZZ503-504-507>509-171500-
SOUTHEAST ARIZONA

CITY           SKY/WX    TMP DP  RH WIND       PRES   REMARKS
TUCSON         SUNNY     62  21  20 SE9       29.98R
DAVIS-MONTHAN  SUNNY     63  22  21 SE7       29.96R
NOGALES        SUNNY     55  26  32 VRB3      30.02R
SIERRA VISTA   SUNNY     59  21  23 CALM      30.06R
SAFFORD        SUNNY     54   6  14 CALM      29.98R
$$

AZZ020-021-025-026-031-171500-
SOUTHWEST ARIZONA

CITY           SKY/WX    TMP DP  RH WIND       PRES   REMARKS
YUMA           NOT AVBL
$$

CAZ031-033-041-043-047-048-061-171500-
SOUTHERN CALIFORNIA

CITY           SKY/WX    TMP DP  RH WIND       PRES   REMARKS
DOWNTOWN L.A.  CLOUDY    60  52  74 CALM      29.87R
L.A. AIRPORT   CLOUDY    61  52  72 E6        29.87S
SAN DIEGO      CLOUDY    61  52  72 VRB6      29.90R
BURBANK        CLOUDY    57  51  80 NE3       29.88R HAZE
ONTARIO        CLOUDY    56  53  90 NW3       29.88R FOG
RIVERSIDE      CLOUDY    55  52  89 SW5       29.89R FOG
PALM SPRINGS   CLEAR     67  43  41 NW5       29.84R
EL CENTRO NAS  PTCLDY    57  46  66 CALM      29.81R
IMPERIAL       CLEAR     59  48  67 E6        29.80R
BLYTHE         SUNNY     61  27  27 N5        29.82R
$$

NVZ020-UTZ003-171500-
SOUTHERN NEVADA-UTAH

CITY           SKY/WX    TMP DP  RH WIND       PRES   REMARKS
LAS VEGAS      NOT AVBL
SALT LAKE CITY MOSUNNY   44  26  49 S10       30.06R
$$

NMZ009-TXZ055-171500-
NEW MEXICO-WEST TEXAS

CITY           SKY/WX    TMP DP  RH WIND       PRES   REMARKS
ALBUQUERQUE    SUNNY     49  29  46 E6        30.13R
EL PASO        SUNNY     59  16  18 NE7       30.01R
$$


........................KEY........................
SKY/WX - SKY CONDITION/WEATHER
TMP    - TEMPERATURE IN FAHRENHEIT
DP     - DEW POINT IN FAHRENHEIT
RH     - RELATIVE HUMIDITY IN PERCENT
WIND   - DIRECTION AND SPEED IN MILES PER HOUR (MPH)
VRB    - VARIABLE WIND DIRECTION
PRES   - MEAN SEA LEVEL PRESSURE IN INCHES OF MERCURY
         F - FALLING PRESSURE   R - RISING PRESSURE
         S - STEADY PRESSURE
VSB    - VISIBILITY IN MILES
HX     - HEAT INDEX IN FAHRENHEIT
WCI    - WIND CHILL INDEX IN FAHRENHEIT
TC     - TEMPERATURE IN CELSIUS WHICH IS ALSO KNOWN AS
         TEMPERATURE IN CENTIGRADE
AFB    - AIR FORCE BASE
         LUKE AFB IS LUKE AIR FORCE BASE
         DAVIS-MONTHAN IS DAVIS-MONTHAN AIR FORCE BASE
NAS    - NAVAL AIR STATION
         EL CENTRO NAS IS EL CENTRO NAVAL AIR STATION
N/A    - NOT AVAILABLE



USA.gov is the U.S. government's official web portal to all federal, state and local government web resources and services.